星链-4411 (STARLINK-4411 )

导读

STARLINK-4411是美国SpaceX星链(Starlink)计划中的卫星,于2022年7月22日发射升空,属于星链低轨互联网卫星星座组网卫星。星链通过数千颗低轨卫星为全球提供高速互联网服务,该卫星承担卫星互联网接入任务,运行在近地轨道,服务全球偏远地区网络覆盖与商业通信应用。

基本信息
目录编号:
53202
目录名称:
STARLINK-4411
国际标识:
2022-084P
轨道中心:
EARTH
卫星名称:
星链-4411
卫星全名:
星链-4411 (STARLINK-4411 )
卫星状态:
在轨 (已飞行1424 天)
发射日期:
2022-07-22 UTC
国别 :
美国 (US)
星等 :
--
轨道信息
数据来源 国际轨道数据
星历时间: 2026-06-15T05:03:15+0800
6小时前
查看轨道信息
半长轴: 6927.651km
偏心率: 0.0001624
轨道倾角: 97.359°
近地点辐角 93.247°
升交点赤经 226.125°
平近点角 266.894°
近地点: 548.388km
远地点: 550.64km
周期: 95.640分钟
每日圈数: 15.056491
详细信息
固有亮度:
5
最大亮度:
2.5
卫星平台:
Starlink v1.5
覆盖范围:
全球
运营商:
太空探索技术公司
运营商所在国:
美国
制造商(研发单位):
太空探索技术公司
制造商所在国:
美国
使用方式:
暂无
卫星简介
星链(Starlink)计划是由太空探索技术公司(SpaceX)提出的一个巨型低轨卫星互联网星座项目,计划在2019年至2024年间在太空搭建由约1.2万颗卫星组成的“星链”网络,其中1584颗将部署在地球上空550千米处的近地轨道,并从2020年开始工作。该卫星仍在工作。
2D轨道图
3D轨道图
轨道高度分析图
轨道倾角分析图
轨道综合分析图
查看轨道综合分析图